owner,sensor,date,latitude,longitude,vertical_datum,sea_water_temperature,qcFlag
Shell,ioos:station:wmo:42361:1,2023-07-01T00:00:00Z,27.5500,-92.4900,22.6,28.9,11111222
Shell,ioos:station:wmo:42361:1,2023-07-01T00:11:00Z,27.5500,-92.4900,22.6,28.9,11111222
Shell,ioos:station:wmo:42361:1,2023-07-01T00:20:00Z,27.5500,-92.4900,22.6,28.9,11111222
Shell,ioos:station:wmo:42361:1,2023-07-01T00:31:00Z,27.5500,-92.4900,22.6,28.8,11111222
Shell,ioos:station:wmo:42361:1,2023-07-01T00:40:00Z,27.5500,-92.4900,22.6,28.8,11111222
Shell,ioos:station:wmo:42361:1,2023-07-01T00:50:00Z,27.5500,-92.4900,22.6,28.8,11111222
Shell,ioos:station:wmo:42361:1,2023-07-01T01:00:00Z,27.5500,-92.4900,22.6,28.7,11111222
Shell,ioos:station:wmo:42361:1,2023-07-01T01:10:00Z,27.5500,-92.4900,22.6,28.8,11111222
Shell,ioos:station:wmo:42361:1,2023-07-01T01:21:00Z,27.5500,-92.4900,22.6,28.7,11111222
Shell,ioos:station:wmo:42361:1,2023-07-01T01:30:00Z,27.5500,-92.4900,22.6,28.8,11111222
Shell,ioos:station:wmo:42361:1,2023-07-01T01:40:00Z,27.5500,-92.4900,22.6,28.7,11111222
Shell,ioos:station:wmo:42361:1,2023-07-01T01:50:00Z,27.5500,-92.4900,22.6,28.7,11111222
Shell,ioos:station:wmo:42361:1,2023-07-01T02:00:00Z,27.5500,-92.4900,22.6,28.8,11111222
Shell,ioos:station:wmo:42361:1,2023-07-01T02:10:00Z,27.5500,-92.4900,22.6,28.8,11111222
Shell,ioos:station:wmo:42361:1,2023-07-01T02:20:00Z,27.5500,-92.4900,22.6,28.8,11111222
Shell,ioos:station:wmo:42361:1,2023-07-01T02:31:00Z,27.5500,-92.4900,22.6,28.8,11111222
Shell,ioos:station:wmo:42361:1,2023-07-01T02:40:00Z,27.5500,-92.4900,22.6,28.8,11111222
Shell,ioos:station:wmo:42361:1,2023-07-01T02:51:00Z,27.5500,-92.4900,22.6,28.8,11111222
Shell,ioos:station:wmo:42361:1,2023-07-01T03:00:00Z,27.5500,-92.4900,22.6,28.9,11111222
Shell,ioos:station:wmo:42361:1,2023-07-01T03:10:00Z,27.5500,-92.4900,22.6,28.8,11111222
Shell,ioos:station:wmo:42361:1,2023-07-01T03:20:00Z,27.5500,-92.4900,22.6,28.8,11111222
Shell,ioos:station:wmo:42361:1,2023-07-01T03:30:00Z,27.5500,-92.4900,22.6,28.8,11111222
Shell,ioos:station:wmo:42361:1,2023-07-01T03:40:00Z,27.5500,-92.4900,22.6,28.8,11111222
Shell,ioos:station:wmo:42361:1,2023-07-01T03:50:00Z,27.5500,-92.4900,22.6,28.9,11111222
Shell,ioos:station:wmo:42361:1,2023-07-01T04:00:00Z,27.5500,-92.4900,22.6,28.9,11111222
Shell,ioos:station:wmo:42361:1,2023-07-01T04:10:00Z,27.5500,-92.4900,22.6,28.9,11111222
Shell,ioos:station:wmo:42361:1,2023-07-01T04:21:00Z,27.5500,-92.4900,22.6,28.9,11111222
Shell,ioos:station:wmo:42361:1,2023-07-01T04:30:00Z,27.5500,-92.4900,22.6,28.9,11111222
Shell,ioos:station:wmo:42361:1,2023-07-01T04:40:00Z,27.5500,-92.4900,22.6,28.9,11111222
Shell,ioos:station:wmo:42361:1,2023-07-01T04:50:00Z,27.5500,-92.4900,22.6,28.9,11111222
Shell,ioos:station:wmo:42361:1,2023-07-01T05:00:00Z,27.5500,-92.4900,22.6,28.9,11111222
Shell,ioos:station:wmo:42361:1,2023-07-01T05:10:00Z,27.5500,-92.4900,22.6,28.9,11111222
Shell,ioos:station:wmo:42361:1,2023-07-01T05:20:00Z,27.5500,-92.4900,22.6,28.9,11111222
Shell,ioos:station:wmo:42361:1,2023-07-01T05:30:00Z,27.5500,-92.4900,22.6,28.9,11111222
Shell,ioos:station:wmo:42361:1,2023-07-01T05:40:00Z,27.5500,-92.4900,22.6,28.9,11111222
Shell,ioos:station:wmo:42361:1,2023-07-01T05:51:00Z,27.5500,-92.4900,22.6,28.9,11111222
Shell,ioos:station:wmo:42361:1,2023-07-01T06:00:00Z,27.5500,-92.4900,22.6,28.8,11111222
Shell,ioos:station:wmo:42361:1,2023-07-01T06:10:00Z,27.5500,-92.4900,22.6,28.8,11111222
Shell,ioos:station:wmo:42361:1,2023-07-01T06:20:00Z,27.5500,-92.4900,22.6,28.8,11111222
Shell,ioos:station:wmo:42361:1,2023-07-01T06:30:00Z,27.5500,-92.4900,22.6,28.8,11111222
Shell,ioos:station:wmo:42361:1,2023-07-01T06:41:00Z,27.5500,-92.4900,22.6,28.8,11111222
Shell,ioos:station:wmo:42361:1,2023-07-01T06:50:00Z,27.5500,-92.4900,22.6,28.8,11111222
Shell,ioos:station:wmo:42361:1,2023-07-01T07:01:00Z,27.5500,-92.4900,22.6,28.8,11111222
Shell,ioos:station:wmo:42361:1,2023-07-01T07:10:00Z,27.5500,-92.4900,22.6,28.8,11111222
Shell,ioos:station:wmo:42361:1,2023-07-01T07:21:00Z,27.5500,-92.4900,22.6,28.8,11111222
Shell,ioos:station:wmo:42361:1,2023-07-01T07:30:00Z,27.5500,-92.4900,22.6,28.9,11111222
Shell,ioos:station:wmo:42361:1,2023-07-01T07:40:00Z,27.5500,-92.4900,22.6,28.8,11111222
Shell,ioos:station:wmo:42361:1,2023-07-01T07:50:00Z,27.5500,-92.4900,22.6,28.8,11111222
Shell,ioos:station:wmo:42361:1,2023-07-01T08:00:00Z,27.5500,-92.4900,22.6,28.9,11111222
Shell,ioos:station:wmo:42361:1,2023-07-01T08:11:00Z,27.5500,-92.4900,22.6,28.8,11111222
Shell,ioos:station:wmo:42361:1,2023-07-01T08:20:00Z,27.5500,-92.4900,22.6,28.8,11111222
Shell,ioos:station:wmo:42361:1,2023-07-01T08:31:00Z,27.5500,-92.4900,22.6,28.7,11111222
Shell,ioos:station:wmo:42361:1,2023-07-01T08:40:00Z,27.5500,-92.4900,22.6,28.7,11111222
Shell,ioos:station:wmo:42361:1,2023-07-01T08:51:00Z,27.5500,-92.4900,22.6,28.7,11111222
Shell,ioos:station:wmo:42361:1,2023-07-01T09:00:00Z,27.5500,-92.4900,22.6,28.7,11111222
Shell,ioos:station:wmo:42361:1,2023-07-01T09:10:00Z,27.5500,-92.4900,22.6,28.7,11111222
Shell,ioos:station:wmo:42361:1,2023-07-01T09:21:00Z,27.5500,-92.4900,22.6,28.7,11111222
Shell,ioos:station:wmo:42361:1,2023-07-01T09:30:00Z,27.5500,-92.4900,22.6,28.7,11111222
Shell,ioos:station:wmo:42361:1,2023-07-01T09:41:00Z,27.5500,-92.4900,22.6,28.7,11111222
Shell,ioos:station:wmo:42361:1,2023-07-01T09:50:00Z,27.5500,-92.4900,22.6,28.6,11111222
Shell,ioos:station:wmo:42361:1,2023-07-01T10:01:00Z,27.5500,-92.4900,22.6,28.6,11111222
Shell,ioos:station:wmo:42361:1,2023-07-01T10:10:00Z,27.5500,-92.4900,22.6,28.6,11111222
Shell,ioos:station:wmo:42361:1,2023-07-01T10:20:00Z,27.5500,-92.4900,22.6,28.6,11111222
Shell,ioos:station:wmo:42361:1,2023-07-01T10:30:00Z,27.5500,-92.4900,22.6,28.6,11111222
Shell,ioos:station:wmo:42361:1,2023-07-01T10:40:00Z,27.5500,-92.4900,22.6,28.6,11111222
Shell,ioos:station:wmo:42361:1,2023-07-01T10:51:00Z,27.5500,-92.4900,22.6,28.6,11111222
Shell,ioos:station:wmo:42361:1,2023-07-01T11:00:00Z,27.5500,-92.4900,22.6,28.6,11111222
Shell,ioos:station:wmo:42361:1,2023-07-01T11:11:00Z,27.5500,-92.4900,22.6,28.5,11111222
Shell,ioos:station:wmo:42361:1,2023-07-01T11:20:00Z,27.5500,-92.4900,22.6,28.5,11111222
Shell,ioos:station:wmo:42361:1,2023-07-01T11:31:00Z,27.5500,-92.4900,22.6,28.5,11111222
Shell,ioos:station:wmo:42361:1,2023-07-01T11:40:00Z,27.5500,-92.4900,22.6,28.5,11111222
Shell,ioos:station:wmo:42361:1,2023-07-01T11:50:00Z,27.5500,-92.4900,22.6,28.5,11111222
Shell,ioos:station:wmo:42361:1,2023-07-01T12:00:00Z,27.5500,-92.4900,22.6,28.5,11111222
Shell,ioos:station:wmo:42361:1,2023-07-01T12:10:00Z,27.5500,-92.4900,22.6,28.5,11111222
Shell,ioos:station:wmo:42361:1,2023-07-01T12:21:00Z,27.5500,-92.4900,22.6,28.6,11111222
Shell,ioos:station:wmo:42361:1,2023-07-01T12:30:00Z,27.5500,-92.4900,22.6,28.5,11111222
Shell,ioos:station:wmo:42361:1,2023-07-01T12:41:00Z,27.5500,-92.4900,22.6,28.5,11111222
Shell,ioos:station:wmo:42361:1,2023-07-01T12:50:00Z,27.5500,-92.4900,22.6,28.6,11111222
Shell,ioos:station:wmo:42361:1,2023-07-01T13:00:00Z,27.5500,-92.4900,22.6,28.6,11111222
Shell,ioos:station:wmo:42361:1,2023-07-01T13:10:00Z,27.5500,-92.4900,22.6,28.6,11111222
Shell,ioos:station:wmo:42361:1,2023-07-01T13:20:00Z,27.5500,-92.4900,22.6,28.7,11111222
Shell,ioos:station:wmo:42361:1,2023-07-01T13:31:00Z,27.5500,-92.4900,22.6,28.8,11111222
Shell,ioos:station:wmo:42361:1,2023-07-01T13:40:00Z,27.5500,-92.4900,22.6,28.6,11111222
Shell,ioos:station:wmo:42361:1,2023-07-01T13:51:00Z,27.5500,-92.4900,22.6,28.5,11111222
Shell,ioos:station:wmo:42361:1,2023-07-01T14:00:00Z,27.5500,-92.4900,22.6,28.4,11111222
Shell,ioos:station:wmo:42361:1,2023-07-01T14:11:00Z,27.5500,-92.4900,22.6,28.5,11111222
Shell,ioos:station:wmo:42361:1,2023-07-01T14:20:00Z,27.5500,-92.4900,22.6,28.5,11111222
Shell,ioos:station:wmo:42361:1,2023-07-01T14:30:00Z,27.5500,-92.4900,22.6,28.7,11111222
Shell,ioos:station:wmo:42361:1,2023-07-01T14:40:00Z,27.5500,-92.4900,22.6,28.7,11111222
Shell,ioos:station:wmo:42361:1,2023-07-01T14:50:00Z,27.5500,-92.4900,22.6,28.7,11111222
Shell,ioos:station:wmo:42361:1,2023-07-01T15:01:00Z,27.5500,-92.4900,22.6,28.9,11111222
Shell,ioos:station:wmo:42361:1,2023-07-01T15:10:00Z,27.5500,-92.4900,22.6,29.1,11111222
Shell,ioos:station:wmo:42361:1,2023-07-01T15:21:00Z,27.5500,-92.4900,22.6,29.2,11111222
Shell,ioos:station:wmo:42361:1,2023-07-01T15:30:00Z,27.5500,-92.4900,22.6,29.2,11111222
Shell,ioos:station:wmo:42361:1,2023-07-01T15:41:00Z,27.5500,-92.4900,22.6,29.1,11111222
Shell,ioos:station:wmo:42361:1,2023-07-01T15:50:00Z,27.5500,-92.4900,22.6,29.1,11111222
Shell,ioos:station:wmo:42361:1,2023-07-01T16:00:00Z,27.5500,-92.4900,22.6,29.1,11111222
Shell,ioos:station:wmo:42361:1,2023-07-01T16:10:00Z,27.5500,-92.4900,22.6,29.1,11111222
Shell,ioos:station:wmo:42361:1,2023-07-01T16:20:00Z,27.5500,-92.4900,22.6,29.2,11111222
Shell,ioos:station:wmo:42361:1,2023-07-01T16:31:00Z,27.5500,-92.4900,22.6,29.2,11111222
Shell,ioos:station:wmo:42361:1,2023-07-01T16:40:00Z,27.5500,-92.4900,22.6,29.2,11111222
Shell,ioos:station:wmo:42361:1,2023-07-01T16:51:00Z,27.5500,-92.4900,22.6,29.1,11111222
Shell,ioos:station:wmo:42361:1,2023-07-01T17:00:00Z,27.5500,-92.4900,22.6,29.2,11111222
Shell,ioos:station:wmo:42361:1,2023-07-01T17:11:00Z,27.5500,-92.4900,22.6,29.3,11111222
Shell,ioos:station:wmo:42361:1,2023-07-01T17:20:00Z,27.5500,-92.4900,22.6,29.2,11111222
Shell,ioos:station:wmo:42361:1,2023-07-01T17:30:00Z,27.5500,-92.4900,22.6,29.1,11111222
Shell,ioos:station:wmo:42361:1,2023-07-01T17:40:00Z,27.5500,-92.4900,22.6,29.3,11111222
Shell,ioos:station:wmo:42361:1,2023-07-01T17:50:00Z,27.5500,-92.4900,22.6,29.3,11111222
Shell,ioos:station:wmo:42361:1,2023-07-01T18:01:00Z,27.5500,-92.4900,22.6,29.4,11111222
Shell,ioos:station:wmo:42361:1,2023-07-01T18:10:00Z,27.5500,-92.4900,22.6,29.4,11111222
Shell,ioos:station:wmo:42361:1,2023-07-01T18:21:00Z,27.5500,-92.4900,22.6,29.4,11111222
Shell,ioos:station:wmo:42361:1,2023-07-01T18:30:00Z,27.5500,-92.4900,22.6,29.4,11111222
Shell,ioos:station:wmo:42361:1,2023-07-01T18:41:00Z,27.5500,-92.4900,22.6,29.4,11111222
Shell,ioos:station:wmo:42361:1,2023-07-01T18:50:00Z,27.5500,-92.4900,22.6,29.4,11111222
Shell,ioos:station:wmo:42361:1,2023-07-01T19:00:00Z,27.5500,-92.4900,22.6,29.4,11111222
Shell,ioos:station:wmo:42361:1,2023-07-02T02:50:00Z,27.5500,-92.4900,22.6,28.9,11111222
Shell,ioos:station:wmo:42361:1,2023-07-02T03:01:00Z,27.5500,-92.4900,22.6,28.9,11111222
Shell,ioos:station:wmo:42361:1,2023-07-02T03:10:00Z,27.5500,-92.4900,22.6,28.9,11111222
Shell,ioos:station:wmo:42361:1,2023-07-02T03:21:00Z,27.5500,-92.4900,22.6,28.9,11111222
Shell,ioos:station:wmo:42361:1,2023-07-02T03:30:00Z,27.5500,-92.4900,22.6,28.8,11111222
Shell,ioos:station:wmo:42361:1,2023-07-02T03:40:00Z,27.5500,-92.4900,22.6,28.8,11111222
Shell,ioos:station:wmo:42361:1,2023-07-02T03:50:00Z,27.5500,-92.4900,22.6,28.9,11111222
Shell,ioos:station:wmo:42361:1,2023-07-02T04:00:00Z,27.5500,-92.4900,22.6,28.9,11111222
Shell,ioos:station:wmo:42361:1,2023-07-02T04:11:00Z,27.5500,-92.4900,22.6,28.9,11111222
Shell,ioos:station:wmo:42361:1,2023-07-02T04:20:00Z,27.5500,-92.4900,22.6,28.9,11111222
Shell,ioos:station:wmo:42361:1,2023-07-02T04:31:00Z,27.5500,-92.4900,22.6,28.9,11111222
Shell,ioos:station:wmo:42361:1,2023-07-02T04:40:00Z,27.5500,-92.4900,22.6,28.9,11111222
Shell,ioos:station:wmo:42361:1,2023-07-02T04:51:00Z,27.5500,-92.4900,22.6,28.9,11111222
Shell,ioos:station:wmo:42361:1,2023-07-02T05:00:00Z,27.5500,-92.4900,22.6,28.8,11111222
Shell,ioos:station:wmo:42361:1,2023-07-02T05:10:00Z,27.5500,-92.4900,22.6,28.8,11111222
Shell,ioos:station:wmo:42361:1,2023-07-02T05:21:00Z,27.5500,-92.4900,22.6,28.8,11111222
Shell,ioos:station:wmo:42361:1,2023-07-02T05:30:00Z,27.5500,-92.4900,22.6,28.8,11111222
Shell,ioos:station:wmo:42361:1,2023-07-02T05:41:00Z,27.5500,-92.4900,22.6,28.8,11111222
Shell,ioos:station:wmo:42361:1,2023-07-02T05:50:00Z,27.5500,-92.4900,22.6,28.7,11111222
Shell,ioos:station:wmo:42361:1,2023-07-02T06:01:00Z,27.5500,-92.4900,22.6,28.8,11111222
Shell,ioos:station:wmo:42361:1,2023-07-02T06:10:00Z,27.5500,-92.4900,22.6,28.7,11111222
Shell,ioos:station:wmo:42361:1,2023-07-02T06:21:00Z,27.5500,-92.4900,22.6,28.7,11111222
Shell,ioos:station:wmo:42361:1,2023-07-02T06:30:00Z,27.5500,-92.4900,22.6,28.7,11111222
Shell,ioos:station:wmo:42361:1,2023-07-02T06:40:00Z,27.5500,-92.4900,22.6,28.7,11111222
Shell,ioos:station:wmo:42361:1,2023-07-02T06:50:00Z,27.5500,-92.4900,22.6,28.8,11111222
Shell,ioos:station:wmo:42361:1,2023-07-02T07:00:00Z,27.5500,-92.4900,22.6,28.8,11111222
Shell,ioos:station:wmo:42361:1,2023-07-02T07:11:00Z,27.5500,-92.4900,22.6,28.9,11111222
Shell,ioos:station:wmo:42361:1,2023-07-02T07:20:00Z,27.5500,-92.4900,22.6,28.9,11111222
Shell,ioos:station:wmo:42361:1,2023-07-02T07:31:00Z,27.5500,-92.4900,22.6,28.9,11111222
Shell,ioos:station:wmo:42361:1,2023-07-02T07:40:00Z,27.5500,-92.4900,22.6,28.7,11111222
Shell,ioos:station:wmo:42361:1,2023-07-02T07:51:00Z,27.5500,-92.4900,22.6,28.5,11111222
Shell,ioos:station:wmo:42361:1,2023-07-02T08:00:00Z,27.5500,-92.4900,22.6,28.4,11111222
Shell,ioos:station:wmo:42361:1,2023-07-02T08:10:00Z,27.5500,-92.4900,22.6,28.4,11111222
Shell,ioos:station:wmo:42361:1,2023-07-02T08:21:00Z,27.5500,-92.4900,22.6,28.6,11111222
Shell,ioos:station:wmo:42361:1,2023-07-02T08:30:00Z,27.5500,-92.4900,22.6,28.5,11111222
Shell,ioos:station:wmo:42361:1,2023-07-02T08:41:00Z,27.5500,-92.4900,22.6,28.5,11111222
Shell,ioos:station:wmo:42361:1,2023-07-02T08:50:00Z,27.5500,-92.4900,22.6,28.5,11111222
Shell,ioos:station:wmo:42361:1,2023-07-02T09:00:00Z,27.5500,-92.4900,22.6,28.5,11111222
Shell,ioos:station:wmo:42361:1,2023-07-02T09:10:00Z,27.5500,-92.4900,22.6,28.8,11111222
Shell,ioos:station:wmo:42361:1,2023-07-02T09:20:00Z,27.5500,-92.4900,22.6,28.9,11111222
Shell,ioos:station:wmo:42361:1,2023-07-02T09:30:00Z,27.5500,-92.4900,22.6,28.9,11111222
Shell,ioos:station:wmo:42361:1,2023-07-02T09:40:00Z,27.5500,-92.4900,22.6,29.0,11111222
Shell,ioos:station:wmo:42361:1,2023-07-02T09:51:00Z,27.5500,-92.4900,22.6,29.1,11111222
Shell,ioos:station:wmo:42361:1,2023-07-02T10:00:00Z,27.5500,-92.4900,22.6,29.1,11111222
Shell,ioos:station:wmo:42361:1,2023-07-02T10:11:00Z,27.5500,-92.4900,22.6,29.1,11111222
Shell,ioos:station:wmo:42361:1,2023-07-02T10:20:00Z,27.5500,-92.4900,22.6,29.1,11111222
Shell,ioos:station:wmo:42361:1,2023-07-02T10:30:00Z,27.5500,-92.4900,22.6,29.1,11111222
Shell,ioos:station:wmo:42361:1,2023-07-02T10:40:00Z,27.5500,-92.4900,22.6,29.1,11111222
Shell,ioos:station:wmo:42361:1,2023-07-02T10:50:00Z,27.5500,-92.4900,22.6,28.9,11111222
Shell,ioos:station:wmo:42361:1,2023-07-02T11:00:00Z,27.5500,-92.4900,22.6,29.0,11111222
Shell,ioos:station:wmo:42361:1,2023-07-02T11:10:00Z,27.5500,-92.4900,22.6,29.0,11111222
Shell,ioos:station:wmo:42361:1,2023-07-02T11:21:00Z,27.5500,-92.4900,22.6,29.0,11111222
Shell,ioos:station:wmo:42361:1,2023-07-02T11:30:00Z,27.5500,-92.4900,22.6,29.0,11111222
Shell,ioos:station:wmo:42361:1,2023-07-02T11:40:00Z,27.5500,-92.4900,22.6,29.1,11111222
Shell,ioos:station:wmo:42361:1,2023-07-02T11:50:00Z,27.5500,-92.4900,22.6,29.1,11111222
Shell,ioos:station:wmo:42361:1,2023-07-02T12:00:00Z,27.5500,-92.4900,22.6,29.1,11111222
Shell,ioos:station:wmo:42361:1,2023-07-02T12:10:00Z,27.5500,-92.4900,22.6,29.0,11111222
Shell,ioos:station:wmo:42361:1,2023-07-02T12:20:00Z,27.5500,-92.4900,22.6,28.8,11111222
Shell,ioos:station:wmo:42361:1,2023-07-02T12:31:00Z,27.5500,-92.4900,22.6,28.9,11111222
Shell,ioos:station:wmo:42361:1,2023-07-02T12:40:00Z,27.5500,-92.4900,22.6,29.2,11111222
Shell,ioos:station:wmo:42361:1,2023-07-02T12:51:00Z,27.5500,-92.4900,22.6,29.2,11111222
Shell,ioos:station:wmo:42361:1,2023-07-02T13:00:00Z,27.5500,-92.4900,22.6,29.2,11111222
Shell,ioos:station:wmo:42361:1,2023-07-02T13:11:00Z,27.5500,-92.4900,22.6,29.2,11111222
Shell,ioos:station:wmo:42361:1,2023-07-02T13:20:00Z,27.5500,-92.4900,22.6,28.9,11111222
Shell,ioos:station:wmo:42361:1,2023-07-02T13:30:00Z,27.5500,-92.4900,22.6,29.0,11111222
Shell,ioos:station:wmo:42361:1,2023-07-02T13:40:00Z,27.5500,-92.4900,22.6,29.1,11111222
Shell,ioos:station:wmo:42361:1,2023-07-02T13:50:00Z,27.5500,-92.4900,22.6,29.1,11111222
Shell,ioos:station:wmo:42361:1,2023-07-02T14:01:00Z,27.5500,-92.4900,22.6,29.3,11111222
Shell,ioos:station:wmo:42361:1,2023-07-02T14:10:00Z,27.5500,-92.4900,22.6,29.4,11111222
Shell,ioos:station:wmo:42361:1,2023-07-02T14:21:00Z,27.5500,-92.4900,22.6,29.3,11111222
Shell,ioos:station:wmo:42361:1,2023-07-02T14:30:00Z,27.5500,-92.4900,22.6,29.5,11111222
Shell,ioos:station:wmo:42361:1,2023-07-02T14:40:00Z,27.5500,-92.4900,22.6,29.4,11111222
Shell,ioos:station:wmo:42361:1,2023-07-02T14:50:00Z,27.5500,-92.4900,22.6,29.6,11111222
Shell,ioos:station:wmo:42361:1,2023-07-02T15:00:00Z,27.5500,-92.4900,22.6,29.6,11111222
Shell,ioos:station:wmo:42361:1,2023-07-02T15:10:00Z,27.5500,-92.4900,22.6,30.0,11111222
Shell,ioos:station:wmo:42361:1,2023-07-02T15:20:00Z,27.5500,-92.4900,22.6,30.0,11111222
Shell,ioos:station:wmo:42361:1,2023-07-02T15:31:00Z,27.5500,-92.4900,22.6,30.0,11111222
Shell,ioos:station:wmo:42361:1,2023-07-02T15:40:00Z,27.5500,-92.4900,22.6,30.4,11111222
Shell,ioos:station:wmo:42361:1,2023-07-02T15:51:00Z,27.5500,-92.4900,22.6,30.6,11111222
Shell,ioos:station:wmo:42361:1,2023-07-02T16:00:00Z,27.5500,-92.4900,22.6,30.6,11111222
Shell,ioos:station:wmo:42361:1,2023-07-02T16:11:00Z,27.5500,-92.4900,22.6,30.6,11111222
Shell,ioos:station:wmo:42361:1,2023-07-02T16:20:00Z,27.5500,-92.4900,22.6,30.7,11111222
Shell,ioos:station:wmo:42361:1,2023-07-02T16:30:00Z,27.5500,-92.4900,22.6,30.5,11111222
Shell,ioos:station:wmo:42361:1,2023-07-02T16:40:00Z,27.5500,-92.4900,22.6,29.7,11111222
Shell,ioos:station:wmo:42361:1,2023-07-02T16:50:00Z,27.5500,-92.4900,22.6,29.3,11111222
Shell,ioos:station:wmo:42361:1,2023-07-02T17:01:00Z,27.5500,-92.4900,22.6,29.1,11111222
Shell,ioos:station:wmo:42361:1,2023-07-02T17:10:00Z,27.5500,-92.4900,22.6,29.2,11111222
Shell,ioos:station:wmo:42361:1,2023-07-02T17:21:00Z,27.5500,-92.4900,22.6,29.3,11111222
Shell,ioos:station:wmo:42361:1,2023-07-02T17:30:00Z,27.5500,-92.4900,22.6,29.5,11111222
Shell,ioos:station:wmo:42361:1,2023-07-02T17:41:00Z,27.5500,-92.4900,22.6,29.4,11111222
Shell,ioos:station:wmo:42361:1,2023-07-02T17:50:00Z,27.5500,-92.4900,22.6,29.3,11111222
Shell,ioos:station:wmo:42361:1,2023-07-02T18:00:00Z,27.5500,-92.4900,22.6,29.3,11111222
Shell,ioos:station:wmo:42361:1,2023-07-02T18:10:00Z,27.5500,-92.4900,22.6,29.1,11111222
Shell,ioos:station:wmo:42361:1,2023-07-02T18:20:00Z,27.5500,-92.4900,22.6,29.0,11111222
Shell,ioos:station:wmo:42361:1,2023-07-02T18:31:00Z,27.5500,-92.4900,22.6,28.9,11111222
Shell,ioos:station:wmo:42361:1,2023-07-02T18:40:00Z,27.5500,-92.4900,22.6,28.9,11111222
Shell,ioos:station:wmo:42361:1,2023-07-02T18:51:00Z,27.5500,-92.4900,22.6,28.9,11111222
Shell,ioos:station:wmo:42361:1,2023-07-02T19:00:00Z,27.5500,-92.4900,22.6,28.8,11111222
Shell,ioos:station:wmo:42361:1,2023-07-02T19:11:00Z,27.5500,-92.4900,22.6,28.9,11111222
Shell,ioos:station:wmo:42361:1,2023-07-02T19:20:00Z,27.5500,-92.4900,22.6,28.9,11111222
Shell,ioos:station:wmo:42361:1,2023-07-02T19:30:00Z,27.5500,-92.4900,22.6,28.9,11111222
Shell,ioos:station:wmo:42361:1,2023-07-02T19:40:00Z,27.5500,-92.4900,22.6,29.0,11111222
Shell,ioos:station:wmo:42361:1,2023-07-02T19:50:00Z,27.5500,-92.4900,22.6,29.0,11111222
Shell,ioos:station:wmo:42361:1,2023-07-02T20:01:00Z,27.5500,-92.4900,22.6,28.9,11111222
Shell,ioos:station:wmo:42361:1,2023-07-02T20:10:00Z,27.5500,-92.4900,22.6,28.9,11111222
Shell,ioos:station:wmo:42361:1,2023-07-02T20:21:00Z,27.5500,-92.4900,22.6,28.9,11111222
Shell,ioos:station:wmo:42361:1,2023-07-02T20:30:00Z,27.5500,-92.4900,22.6,28.9,11111222
Shell,ioos:station:wmo:42361:1,2023-07-02T20:41:00Z,27.5500,-92.4900,22.6,28.9,11111222
Shell,ioos:station:wmo:42361:1,2023-07-02T20:50:00Z,27.5500,-92.4900,22.6,28.9,11111222
Shell,ioos:station:wmo:42361:1,2023-07-02T21:00:00Z,27.5500,-92.4900,22.6,29.0,11111222
Shell,ioos:station:wmo:42361:1,2023-07-02T21:10:00Z,27.5500,-92.4900,22.6,29.0,11111222
Shell,ioos:station:wmo:42361:1,2023-07-02T21:20:00Z,27.5500,-92.4900,22.6,29.0,11111222
Shell,ioos:station:wmo:42361:1,2023-07-02T21:31:00Z,27.5500,-92.4900,22.6,28.9,11111222
Shell,ioos:station:wmo:42361:1,2023-07-02T21:40:00Z,27.5500,-92.4900,22.6,29.0,11111222
Shell,ioos:station:wmo:42361:1,2023-07-02T21:51:00Z,27.5500,-92.4900,22.6,29.0,11111222
Shell,ioos:station:wmo:42361:1,2023-07-02T22:00:00Z,27.5500,-92.4900,22.6,29.0,11111222
Shell,ioos:station:wmo:42361:1,2023-07-02T22:11:00Z,27.5500,-92.4900,22.6,29.1,11111222
Shell,ioos:station:wmo:42361:1,2023-07-02T22:20:00Z,27.5500,-92.4900,22.6,29.1,11111222
Shell,ioos:station:wmo:42361:1,2023-07-02T22:30:00Z,27.5500,-92.4900,22.6,29.2,11111222
Shell,ioos:station:wmo:42361:1,2023-07-02T22:40:00Z,27.5500,-92.4900,22.6,29.1,11111222
Shell,ioos:station:wmo:42361:1,2023-07-02T22:50:00Z,27.5500,-92.4900,22.6,29.0,11111222
Shell,ioos:station:wmo:42361:1,2023-07-02T23:00:00Z,27.5500,-92.4900,22.6,29.0,11111222
Shell,ioos:station:wmo:42361:1,2023-07-02T23:10:00Z,27.5500,-92.4900,22.6,29.0,11111222
Shell,ioos:station:wmo:42361:1,2023-07-02T23:21:00Z,27.5500,-92.4900,22.6,29.1,11111222
Shell,ioos:station:wmo:42361:1,2023-07-02T23:30:00Z,27.5500,-92.4900,22.6,29.1,11111222
Shell,ioos:station:wmo:42361:1,2023-07-02T23:41:00Z,27.5500,-92.4900,22.6,29.0,11111222
Shell,ioos:station:wmo:42361:1,2023-07-02T23:50:00Z,27.5500,-92.4900,22.6,29.0,11111222
Shell,ioos:station:wmo:42361:1,2023-07-03T00:00:00Z,27.5500,-92.4900,22.6,28.9,11111222
Shell,ioos:station:wmo:42361:1,2023-07-03T00:10:00Z,27.5500,-92.4900,22.6,28.9,11111222
Shell,ioos:station:wmo:42361:1,2023-07-03T00:20:00Z,27.5500,-92.4900,22.6,28.9,11111222
Shell,ioos:station:wmo:42361:1,2023-07-03T00:30:00Z,27.5500,-92.4900,22.6,28.9,11111222
Shell,ioos:station:wmo:42361:1,2023-07-03T00:40:00Z,27.5500,-92.4900,22.6,28.9,11111222
Shell,ioos:station:wmo:42361:1,2023-07-03T00:51:00Z,27.5500,-92.4900,22.6,29.0,11111222
Shell,ioos:station:wmo:42361:1,2023-07-03T01:00:00Z,27.5500,-92.4900,22.6,29.0,11111222
Shell,ioos:station:wmo:42361:1,2023-07-03T01:11:00Z,27.5500,-92.4900,22.6,29.1,11111222
Shell,ioos:station:wmo:42361:1,2023-07-03T01:20:00Z,27.5500,-92.4900,22.6,29.3,11111222
Shell,ioos:station:wmo:42361:1,2023-07-03T01:30:00Z,27.5500,-92.4900,22.6,29.3,11111222
Shell,ioos:station:wmo:42361:1,2023-07-03T01:40:00Z,27.5500,-92.4900,22.6,29.3,11111222
Shell,ioos:station:wmo:42361:1,2023-07-03T01:50:00Z,27.5500,-92.4900,22.6,29.4,11111222
Shell,ioos:station:wmo:42361:1,2023-07-03T02:00:00Z,27.5500,-92.4900,22.6,29.5,11111222
Shell,ioos:station:wmo:42361:1,2023-07-03T02:10:00Z,27.5500,-92.4900,22.6,29.5,11111222
Shell,ioos:station:wmo:42361:1,2023-07-03T02:21:00Z,27.5500,-92.4900,22.6,29.5,11111222
Shell,ioos:station:wmo:42361:1,2023-07-03T02:30:00Z,27.5500,-92.4900,22.6,29.5,11111222
Shell,ioos:station:wmo:42361:1,2023-07-03T02:41:00Z,27.5500,-92.4900,22.6,29.5,11111222
Shell,ioos:station:wmo:42361:1,2023-07-03T02:50:00Z,27.5500,-92.4900,22.6,29.6,11111222
Shell,ioos:station:wmo:42361:1,2023-07-03T03:00:00Z,27.5500,-92.4900,22.6,29.6,11111222
Shell,ioos:station:wmo:42361:1,2023-07-03T03:10:00Z,27.5500,-92.4900,22.6,29.6,11111222
Shell,ioos:station:wmo:42361:1,2023-07-03T03:20:00Z,27.5500,-92.4900,22.6,29.6,11111222
Shell,ioos:station:wmo:42361:1,2023-07-03T03:30:00Z,27.5500,-92.4900,22.6,29.6,11111222
Shell,ioos:station:wmo:42361:1,2023-07-03T03:40:00Z,27.5500,-92.4900,22.6,29.6,11111222
Shell,ioos:station:wmo:42361:1,2023-07-03T03:50:00Z,27.5500,-92.4900,22.6,29.6,11111222
Shell,ioos:station:wmo:42361:1,2023-07-03T04:00:00Z,27.5500,-92.4900,22.6,29.6,11111222
Shell,ioos:station:wmo:42361:1,2023-07-03T04:11:00Z,27.5500,-92.4900,22.6,29.6,11111222